Location: Bonningues
(50.7927°N, 2.0150°E)
Time: 08:22:29
(UTC+00:00)

Cosmos 2100 Rocket - Pass Details

Date: 08 August 2020
Orbit: 957 x 1000 km, 82.9° (Epoch: 26 September)

Event Time Altitude Azimuth Distance (km) Brightness Sun altitude
Exits shadow 22:05:36 31° 169° (S) 1,622 4.6 -19.0°
Maximum altitude 22:08:39 69° 95° (E) 1,027 3.9 -19.3°
Drops below altitude 10° 22:14:46 10° 14° (NNE) 2,701 7.0 -19.7°
Sets 22:17:17 0° 12° (NNE) 3,652 7.8 -19.9°
